Time,TemperatureF,DewpointF,PressureIn,WindDirection,WindDirectionDegrees,WindSpeedMPH,WindSpeedGustMPH,Humidity,HourlyPrecipIn,Conditions,Clouds,dailyrainin,SoftwareType,DateUTC
2013-01-25 00:22:00,57.0,-99.9,30.12,East,80,4.0,7.0,-999,-99.99,,,-99.99,,2013-01-25 08:22:00,
2013-01-25 00:32:00,57.0,-99.9,30.12,East,80,4.0,7.0,-999,-99.99,,,-99.99,,2013-01-25 08:32:00,
2013-01-25 00:42:00,57.0,-99.9,30.12,East,80,4.0,7.0,-999,-99.99,,,-99.99,,2013-01-25 08:42:00,
2013-01-25 00:50:00,57.0,-99.9,30.11,SSE,160,4.0,4.0,-999,-99.99,,,-99.99,,2013-01-25 08:50:00,
2013-01-25 01:22:00,57.0,-99.9,30.11,SSE,160,4.0,4.0,-999,-99.99,,,-99.99,,2013-01-25 09:22:00,
2013-01-25 01:32:00,57.0,-99.9,30.11,SSE,160,4.0,4.0,-999,-99.99,,,-99.99,,2013-01-25 09:32:00,
2013-01-25 01:42:00,57.0,-99.9,30.11,SSE,160,4.0,4.0,-999,-99.99,,,-99.99,,2013-01-25 09:42:00,
2013-01-25 01:50:00,56.0,-99.9,30.11,ESE,120,4.0,7.0,-999,-99.99,,,-99.99,,2013-01-25 09:50:00,
2013-01-25 02:22:00,56.0,-99.9,30.11,ESE,120,4.0,7.0,-999,-99.99,,,-99.99,,2013-01-25 10:22:00,
2013-01-25 02:32:00,56.0,-99.9,30.11,ESE,120,4.0,7.0,-999,-99.99,,,-99.99,,2013-01-25 10:32:00,
2013-01-25 02:42:00,56.0,-99.9,30.11,ESE,120,4.0,7.0,-999,-99.99,,,-99.99,,2013-01-25 10:42:00,
2013-01-25 02:50:00,56.0,-99.9,30.11,NNE,30,2.0,4.0,-999,-99.99,,,-99.99,,2013-01-25 10:50:00,
2013-01-25 03:22:00,56.0,-99.9,30.11,NNE,30,2.0,4.0,-999,-99.99,,,-99.99,,2013-01-25 11:22:00,
2013-01-25 03:33:00,56.0,-99.9,30.11,NNE,30,2.0,4.0,-999,-99.99,,,-99.99,,2013-01-25 11:33:00,
2013-01-25 03:42:00,56.0,-99.9,30.11,NNE,30,2.0,4.0,-999,-99.99,,,-99.99,,2013-01-25 11:42:00,
2013-01-25 03:50:00,57.0,-99.9,30.08,North,360,7.0,9.0,-999,-99.99,,,-99.99,,2013-01-25 11:50:00,
2013-01-25 04:22:00,57.0,-99.9,30.08,North,360,7.0,9.0,-999,-99.99,,,-99.99,,2013-01-25 12:22:00,
2013-01-25 04:33:00,57.0,-99.9,30.08,North,360,7.0,9.0,-999,-99.99,,,-99.99,,2013-01-25 12:33:00,
2013-01-25 04:42:00,57.0,-99.9,30.08,North,360,7.0,9.0,-999,-99.99,,,-99.99,,2013-01-25 12:42:00,
2013-01-25 04:50:00,57.0,-99.9,30.05,North,360,4.0,7.0,-999,-99.99,,,-99.99,,2013-01-25 12:50:00,
2013-01-25 05:22:00,57.0,-99.9,30.05,North,360,4.0,7.0,-999,-99.99,,,-99.99,,2013-01-25 13:22:00,
2013-01-25 05:33:00,57.0,-99.9,30.05,North,360,4.0,7.0,-999,-99.99,,,-99.99,,2013-01-25 13:33:00,
2013-01-25 05:43:00,57.0,-99.9,30.05,North,360,4.0,7.0,-999,-99.99,,,-99.99,,2013-01-25 13:43:00,
2013-01-25 05:50:00,57.0,-99.9,30.05,SSW,210,4.0,4.0,-999,-99.99,,,-99.99,,2013-01-25 13:50:00,
2013-01-25 06:23:00,57.0,-99.9,30.05,SSW,210,4.0,4.0,-999,-99.99,,,-99.99,,2013-01-25 14:23:00,
2013-01-25 06:33:00,57.0,-99.9,30.05,SSW,210,4.0,4.0,-999,-99.99,,,-99.99,,2013-01-25 14:33:00,
2013-01-25 06:42:00,57.0,-99.9,30.05,SSW,210,4.0,4.0,-999,-99.99,,,-99.99,,2013-01-25 14:42:00,
2013-01-25 06:50:00,57.0,-99.9,30.06,West,260,2.0,4.0,-999,-99.99,,,-99.99,,2013-01-25 14:50:00,
2013-01-25 07:23:00,57.0,-99.9,30.06,West,260,2.0,4.0,-999,-99.99,,,-99.99,,2013-01-25 15:23:00,
2013-01-25 07:33:00,57.0,-99.9,30.06,West,260,2.0,4.0,-999,-99.99,,,-99.99,,2013-01-25 15:33:00,
2013-01-25 07:43:00,57.0,-99.9,30.06,West,260,2.0,4.0,-999,-99.99,,,-99.99,,2013-01-25 15:43:00,
2013-01-25 07:50:00,57.0,-99.9,30.07,NE,50,2.0,4.0,-999,-99.99,,,-99.99,,2013-01-25 15:50:00,
2013-01-25 08:23:00,57.0,-99.9,30.07,NE,50,2.0,4.0,-999,-99.99,,,-99.99,,2013-01-25 16:23:00,
2013-01-25 08:33:00,57.0,-99.9,30.07,NE,50,2.0,4.0,-999,-99.99,,,-99.99,,2013-01-25 16:33:00,
2013-01-25 08:43:00,57.0,-99.9,30.07,NE,50,2.0,4.0,-999,-99.99,,,-99.99,,2013-01-25 16:43:00,
2013-01-25 08:50:00,57.0,-99.9,30.09,West,260,4.0,7.0,-999,-99.99,,,-99.99,,2013-01-25 16:50:00,
2013-01-25 09:23:00,57.0,-99.9,30.09,West,260,4.0,7.0,-999,-99.99,,,-99.99,,2013-01-25 17:23:00,
2013-01-25 09:33:00,57.0,-99.9,30.09,West,260,4.0,7.0,-999,-99.99,,,-99.99,,2013-01-25 17:33:00,
2013-01-25 09:43:00,57.0,-99.9,30.09,West,260,4.0,7.0,-999,-99.99,,,-99.99,,2013-01-25 17:43:00,
2013-01-25 09:50:00,57.0,-99.9,30.11,WNW,300,4.0,4.0,-999,-99.99,,,-99.99,,2013-01-25 17:50:00,
2013-01-25 10:24:00,57.0,-99.9,30.11,WNW,300,4.0,4.0,-999,-99.99,,,-99.99,,2013-01-25 18:24:00,
2013-01-25 10:33:00,57.0,-99.9,30.11,WNW,300,4.0,4.0,-999,-99.99,,,-99.99,,2013-01-25 18:33:00,
2013-01-25 10:43:00,57.0,-99.9,30.11,WNW,300,4.0,4.0,-999,-99.99,,,-99.99,,2013-01-25 18:43:00,
2013-01-25 10:50:00,57.0,-99.9,30.12,ESE,120,9.0,11.0,-999,-99.99,,,-99.99,,2013-01-25 18:50:00,
2013-01-25 11:23:00,57.0,-99.9,30.12,ESE,120,9.0,11.0,-999,-99.99,,,-99.99,,2013-01-25 19:23:00,
2013-01-25 11:33:00,57.0,-99.9,30.12,ESE,120,9.0,11.0,-999,-99.99,,,-99.99,,2013-01-25 19:33:00,
2013-01-25 11:43:00,57.0,-99.9,30.12,ESE,120,9.0,11.0,-999,-99.99,,,-99.99,,2013-01-25 19:43:00,
2013-01-25 11:50:00,56.0,-99.9,30.09,NE,50,4.0,4.0,-999,-99.99,,,-99.99,,2013-01-25 19:50:00,
2013-01-25 12:23:00,56.0,-99.9,30.09,NE,50,4.0,4.0,-999,-99.99,,,-99.99,,2013-01-25 20:23:00,
2013-01-25 12:33:00,56.0,-99.9,30.09,NE,50,4.0,4.0,-999,-99.99,,,-99.99,,2013-01-25 20:33:00,
2013-01-25 12:43:00,56.0,-99.9,30.09,NE,50,4.0,4.0,-999,-99.99,,,-99.99,,2013-01-25 20:43:00,
2013-01-25 12:50:00,56.0,-99.9,30.05,SE,140,7.0,9.0,-999,-99.99,,,-99.99,,2013-01-25 20:50:00,
2013-01-25 13:23:00,56.0,-99.9,30.05,SE,140,7.0,9.0,-999,-99.99,,,-99.99,,2013-01-25 21:23:00,
2013-01-25 13:33:00,56.0,-99.9,30.05,SE,140,7.0,9.0,-999,-99.99,,,-99.99,,2013-01-25 21:33:00,
2013-01-25 13:43:00,56.0,-99.9,30.05,SE,140,7.0,9.0,-999,-99.99,,,-99.99,,2013-01-25 21:43:00,
2013-01-25 13:50:00,56.0,-99.9,30.03,SSE,150,4.0,9.0,-999,-99.99,,,-99.99,,2013-01-25 21:50:00,
2013-01-25 14:23:00,56.0,-99.9,30.03,SSE,150,4.0,9.0,-999,-99.99,,,-99.99,,2013-01-25 22:23:00,
2013-01-25 14:33:00,56.0,-99.9,30.03,SSE,150,4.0,9.0,-999,-99.99,,,-99.99,,2013-01-25 22:33:00,
2013-01-25 14:42:00,56.0,-99.9,30.03,SSE,150,4.0,9.0,-999,-99.99,,,-99.99,,2013-01-25 22:42:00,
2013-01-25 14:50:00,56.0,-99.9,30.03,South,190,4.0,7.0,-999,-99.99,,,-99.99,,2013-01-25 22:50:00,
2013-01-25 15:22:00,56.0,-99.9,30.03,South,190,4.0,7.0,-999,-99.99,,,-99.99,,2013-01-25 23:22:00,
2013-01-25 15:32:00,56.0,-99.9,30.03,South,190,4.0,7.0,-999,-99.99,,,-99.99,,2013-01-25 23:32:00,
2013-01-25 15:42:00,56.0,-99.9,30.03,South,190,4.0,7.0,-999,-99.99,,,-99.99,,2013-01-25 23:42:00,
2013-01-25 15:50:00,57.0,-99.9,30.02,SSW,210,2.0,2.0,-999,-99.99,,,-99.99,,2013-01-25 23:50:00,
2013-01-25 16:22:00,57.0,-99.9,30.02,SSW,210,2.0,2.0,-999,-99.99,,,-99.99,,2013-01-26 00:22:00,
2013-01-25 16:33:00,57.0,-99.9,30.02,SSW,210,2.0,2.0,-999,-99.99,,,-99.99,,2013-01-26 00:33:00,
2013-01-25 16:42:00,57.0,-99.9,30.02,SSW,210,2.0,2.0,-999,-99.99,,,-99.99,,2013-01-26 00:42:00,
2013-01-25 16:50:00,57.0,-99.9,30.00,North,360,4.0,7.0,-999,-99.99,,,-99.99,,2013-01-26 00:50:00,
2013-01-25 17:22:00,57.0,-99.9,30.00,North,360,4.0,7.0,-999,-99.99,,,-99.99,,2013-01-26 01:22:00,
2013-01-25 17:32:00,57.0,-99.9,30.00,North,360,4.0,7.0,-999,-99.99,,,-99.99,,2013-01-26 01:32:00,
2013-01-25 17:42:00,57.0,-99.9,30.00,North,360,4.0,7.0,-999,-99.99,,,-99.99,,2013-01-26 01:42:00,
2013-01-25 17:50:00,56.0,-99.9,30.01,NNW,340,4.0,7.0,-999,-99.99,,,-99.99,,2013-01-26 01:50:00,
2013-01-25 18:22:00,56.0,-99.9,30.01,NNW,340,4.0,7.0,-999,-99.99,,,-99.99,,2013-01-26 02:22:00,
2013-01-25 18:32:00,56.0,-99.9,30.01,NNW,340,4.0,7.0,-999,-99.99,,,-99.99,,2013-01-26 02:32:00,
2013-01-25 18:42:00,56.0,-99.9,30.01,NNW,340,4.0,7.0,-999,-99.99,,,-99.99,,2013-01-26 02:42:00,
2013-01-25 18:50:00,57.0,-99.9,30.02,NW,320,4.0,7.0,-999,-99.99,,,-99.99,,2013-01-26 02:50:00,
2013-01-25 19:22:00,57.0,-99.9,30.02,NW,320,4.0,7.0,-999,-99.99,,,-99.99,,2013-01-26 03:22:00,
2013-01-25 19:32:00,57.0,-99.9,30.02,NW,320,4.0,7.0,-999,-99.99,,,-99.99,,2013-01-26 03:32:00,
2013-01-25 19:43:00,57.0,-99.9,30.02,NW,320,4.0,7.0,-999,-99.99,,,-99.99,,2013-01-26 03:43:00,
2013-01-25 19:50:00,57.0,-99.9,30.01,NW,310,7.0,7.0,-999,-99.99,,,-99.99,,2013-01-26 03:50:00,
2013-01-25 20:22:00,57.0,-99.9,30.01,NW,310,7.0,7.0,-999,-99.99,,,-99.99,,2013-01-26 04:22:00,
2013-01-25 20:32:00,57.0,-99.9,30.01,NW,310,7.0,7.0,-999,-99.99,,,-99.99,,2013-01-26 04:32:00,
2013-01-25 20:43:00,57.0,-99.9,30.01,NW,310,7.0,7.0,-999,-99.99,,,-99.99,,2013-01-26 04:43:00,
2013-01-25 20:50:00,57.0,-99.9,30.00,WNW,300,7.0,9.0,-999,-99.99,,,-99.99,,2013-01-26 04:50:00,
2013-01-25 21:23:00,57.0,-99.9,30.00,WNW,300,7.0,9.0,-999,-99.99,,,-99.99,,2013-01-26 05:23:00,
2013-01-25 21:33:00,57.0,-99.9,30.00,WNW,300,7.0,9.0,-999,-99.99,,,-99.99,,2013-01-26 05:33:00,
2013-01-25 21:42:00,57.0,-99.9,30.00,WNW,300,7.0,9.0,-999,-99.99,,,-99.99,,2013-01-26 05:42:00,
2013-01-25 21:50:00,56.0,-99.9,29.99,WSW,250,7.0,9.0,-999,-99.99,,,-99.99,,2013-01-26 05:50:00,
2013-01-25 22:22:00,56.0,-99.9,29.99,WSW,250,7.0,9.0,-999,-99.99,,,-99.99,,2013-01-26 06:22:00,
2013-01-25 22:32:00,56.0,-99.9,29.99,WSW,250,7.0,9.0,-999,-99.99,,,-99.99,,2013-01-26 06:32:00,
2013-01-25 22:42:00,56.0,-99.9,29.99,WSW,250,7.0,9.0,-999,-99.99,,,-99.99,,2013-01-26 06:42:00,
2013-01-25 22:50:00,57.0,-99.9,29.98,West,280,9.0,11.0,-999,-99.99,,,-99.99,,2013-01-26 06:50:00,
2013-01-25 23:22:00,57.0,-99.9,29.98,West,280,9.0,11.0,-999,-99.99,,,-99.99,,2013-01-26 07:22:00,
2013-01-25 23:33:00,57.0,-99.9,29.98,West,280,9.0,11.0,-999,-99.99,,,-99.99,,2013-01-26 07:33:00,
2013-01-25 23:42:00,57.0,-99.9,29.98,West,280,9.0,11.0,-999,-99.99,,,-99.99,,2013-01-26 07:42:00,
2013-01-25 23:50:00,56.0,-99.9,29.97,WNW,290,11.0,13.0,-999,-99.99,,,-99.99,,2013-01-26 07:50:00,